Location: Unspecified
(48.2082°N, 0.0000°E)
Time: 17:25:41
(UTC+00:00)

A-11 Canister half - Pass Details

Date: 27 June 2019
Orbit: 1514 x 1685 km, 47.2° (Epoch: 20 July)

Event Time Altitude Azimuth Distance (km) Brightness Sun altitude
Rises 13:41:53 0° 282° (WNW) 4,865 11.9 58.3°
Reaches altitude 10° 13:45:04 10° 281° (W) 3,855 11.5 57.9°
Maximum altitude 13:54:48 72° 200° (SSW) 1,647 10.9 56.7°
Drops below altitude 10° 14:04:09 10° 118° (ESE) 3,716 11.0 55.5°
Sets 14:07:09 0° 117° (ESE) 4,682 11.4 55.0°
